Time,TemperatureF,DewpointF,PressureIn,WindDirection,WindDirectionDegrees,WindSpeedMPH,WindSpeedGustMPH,Humidity,HourlyPrecipIn,Conditions,Clouds,dailyrainin,SoftwareType,DateUTC
2013-06-27 00:12:00,61.2,35.0,29.70,WNW,292,2.0,3.0,37,0.00,,,0.00,weatherlink.com 1.10,2013-06-27 06:12:00,
2013-06-27 00:27:00,60.3,34.0,29.70,West,267,1.0,4.0,37,0.00,,,0.00,weatherlink.com 1.10,2013-06-27 06:27:00,
2013-06-27 00:42:00,59.7,35.0,29.70,WSW,253,3.0,5.0,40,0.00,,,0.00,weatherlink.com 1.10,2013-06-27 06:42:00,
2013-06-27 00:57:00,59.0,34.0,29.70,WSW,253,0.0,3.0,39,0.00,,,0.00,weatherlink.com 1.10,2013-06-27 06:57:00,
2013-06-27 01:12:00,58.4,33.0,29.70,WSW,253,1.0,3.0,38,0.00,,,0.00,weatherlink.com 1.10,2013-06-27 07:12:00,
2013-06-27 01:27:00,57.8,33.0,29.70,WSW,253,0.0,3.0,39,0.00,,,0.00,weatherlink.com 1.10,2013-06-27 07:27:00,
2013-06-27 01:42:00,57.3,32.0,29.71,WSW,253,0.0,1.0,38,0.00,,,0.00,weatherlink.com 1.10,2013-06-27 07:42:00,
2013-06-27 01:57:00,56.9,31.0,29.71,WSW,253,0.0,1.0,38,0.00,,,0.00,weatherlink.com 1.10,2013-06-27 07:57:00,
2013-06-27 02:13:00,56.6,31.0,29.71,WSW,253,1.0,2.0,38,0.00,,,0.00,weatherlink.com 1.10,2013-06-27 08:13:00,
2013-06-27 02:28:00,56.0,32.0,29.70,WSW,253,0.0,0.0,40,0.00,,,0.00,weatherlink.com 1.10,2013-06-27 08:28:00,
2013-06-27 02:43:00,55.7,32.0,29.71,WSW,253,0.0,0.0,40,0.00,,,0.00,weatherlink.com 1.10,2013-06-27 08:43:00,
2013-06-27 03:00:00,55.5,32.0,29.71,WSW,253,0.0,1.0,41,0.00,,,0.00,weatherlink.com 1.10,2013-06-27 09:00:00,
2013-06-27 03:13:00,55.9,31.0,29.71,WSW,253,1.0,3.0,39,0.00,,,0.00,weatherlink.com 1.10,2013-06-27 09:13:00,
2013-06-27 03:28:00,56.8,31.0,29.72,WSW,253,0.0,4.0,38,0.00,,,0.00,weatherlink.com 1.10,2013-06-27 09:28:00,
2013-06-27 03:43:00,56.9,31.0,29.72,WSW,253,0.0,2.0,37,0.00,,,0.00,weatherlink.com 1.10,2013-06-27 09:43:00,
2013-06-27 03:58:00,56.3,31.0,29.72,WSW,253,0.0,1.0,38,0.00,,,0.00,weatherlink.com 1.10,2013-06-27 09:58:00,
2013-06-27 04:13:00,56.0,30.0,29.73,WSW,253,0.0,2.0,37,0.00,,,0.00,weatherlink.com 1.10,2013-06-27 10:13:00,
2013-06-27 04:28:00,56.2,29.0,29.72,WSW,253,0.0,2.0,36,0.00,,,0.00,weatherlink.com 1.10,2013-06-27 10:28:00,
2013-06-27 04:43:00,55.8,30.0,29.72,WSW,253,0.0,2.0,37,0.00,,,0.00,weatherlink.com 1.10,2013-06-27 10:43:00,
2013-06-27 04:58:00,55.4,29.0,29.73,WSW,253,1.0,2.0,37,0.00,,,0.00,weatherlink.com 1.10,2013-06-27 10:58:00,
2013-06-27 05:13:00,55.7,30.0,29.72,WSW,253,0.0,2.0,37,0.00,,,0.00,weatherlink.com 1.10,2013-06-27 11:13:00,
2013-06-27 05:28:00,54.9,30.0,29.73,WSW,253,0.0,0.0,38,0.00,,,0.00,weatherlink.com 1.10,2013-06-27 11:28:00,
2013-06-27 05:43:00,53.9,30.0,29.73,WSW,253,0.0,1.0,40,0.00,,,0.00,weatherlink.com 1.10,2013-06-27 11:43:00,
2013-06-27 05:58:00,53.0,30.0,29.73,WSW,253,0.0,1.0,41,0.00,,,0.00,weatherlink.com 1.10,2013-06-27 11:58:00,
2013-06-27 06:13:00,52.9,30.0,29.74,WSW,253,0.0,0.0,42,0.00,,,0.00,weatherlink.com 1.10,2013-06-27 12:13:00,
2013-06-27 06:28:00,53.8,30.0,29.75,WSW,253,0.0,1.0,41,0.00,,,0.00,weatherlink.com 1.10,2013-06-27 12:28:00,
2013-06-27 06:45:00,54.8,30.0,29.75,WSW,253,0.0,1.0,39,0.00,,,0.00,weatherlink.com 1.10,2013-06-27 12:45:00,
2013-06-27 06:58:00,55.3,31.0,29.75,WSW,252,0.0,1.0,39,0.00,,,0.00,weatherlink.com 1.10,2013-06-27 12:58:00,
2013-06-27 07:14:00,57.7,31.0,29.76,WSW,251,0.0,1.0,37,0.00,,,0.00,weatherlink.com 1.10,2013-06-27 13:14:00,
2013-06-27 07:29:00,63.5,33.0,29.77,WSW,251,0.0,1.0,32,0.00,,,0.00,weatherlink.com 1.10,2013-06-27 13:29:00,
2013-06-27 07:44:00,67.1,33.0,29.77,WSW,251,1.0,3.0,28,0.00,,,0.00,weatherlink.com 1.10,2013-06-27 13:44:00,
2013-06-27 07:59:00,67.6,32.0,29.77,WSW,251,0.0,1.0,27,0.00,,,0.00,weatherlink.com 1.10,2013-06-27 13:59:00,
2013-06-27 08:14:00,69.7,30.0,29.77,WSW,252,0.0,4.0,23,0.00,,,0.00,weatherlink.com 1.10,2013-06-27 14:14:00,
2013-06-27 08:29:00,70.2,31.0,29.77,West,272,0.0,6.0,23,0.00,,,0.00,weatherlink.com 1.10,2013-06-27 14:29:00,
2013-06-27 08:44:00,71.0,30.0,29.78,NW,322,0.0,5.0,22,0.00,,,0.00,weatherlink.com 1.10,2013-06-27 14:44:00,
2013-06-27 08:59:00,71.9,32.0,29.78,ENE,71,3.0,7.0,23,0.00,,,0.00,weatherlink.com 1.10,2013-06-27 14:59:00,
2013-06-27 09:14:00,71.8,33.0,29.78,NNE,32,1.0,6.0,24,0.00,,,0.00,weatherlink.com 1.10,2013-06-27 15:14:00,
2013-06-27 09:29:00,71.8,32.0,29.78,ENE,78,0.0,5.0,23,0.00,,,0.00,weatherlink.com 1.10,2013-06-27 15:29:00,
2013-06-27 09:44:00,73.0,31.0,29.78,NE,46,0.0,7.0,21,0.00,,,0.00,weatherlink.com 1.10,2013-06-27 15:44:00,
2013-06-27 09:59:00,74.2,31.0,29.78,NE,36,0.0,5.0,20,0.00,,,0.00,weatherlink.com 1.10,2013-06-27 15:59:00,
2013-06-27 10:14:00,75.5,29.0,29.77,NNE,33,0.0,4.0,18,0.00,,,0.00,weatherlink.com 1.10,2013-06-27 16:14:00,
2013-06-27 10:30:00,77.1,30.0,29.77,NNW,331,4.0,5.0,18,0.00,,,0.00,weatherlink.com 1.10,2013-06-27 16:30:00,
2013-06-27 10:44:00,77.7,31.0,29.77,ENE,67,0.0,5.0,18,0.00,,,0.00,weatherlink.com 1.10,2013-06-27 16:44:00,
2013-06-27 10:59:00,77.9,27.0,29.77,North,5,0.0,9.0,15,0.00,,,0.00,weatherlink.com 1.10,2013-06-27 16:59:00,
2013-06-27 11:14:00,79.3,26.0,29.77,NW,313,0.0,1.0,14,0.00,,,0.00,weatherlink.com 1.10,2013-06-27 17:14:00,
2013-06-27 11:29:00,79.7,28.0,29.77,ESE,105,4.0,9.0,15,0.00,,,0.00,weatherlink.com 1.10,2013-06-27 17:29:00,
2013-06-27 11:44:00,79.1,28.0,29.77,East,88,0.0,6.0,15,0.00,,,0.00,weatherlink.com 1.10,2013-06-27 17:44:00,
2013-06-27 11:59:00,79.9,28.0,29.76,NE,39,0.0,6.0,15,0.00,,,0.00,weatherlink.com 1.10,2013-06-27 17:59:00,
2013-06-27 12:14:00,79.7,26.0,29.76,ESE,104,0.0,6.0,14,0.00,,,0.00,weatherlink.com 1.10,2013-06-27 18:14:00,
2013-06-27 12:29:00,79.3,28.0,29.76,West,280,0.0,13.0,15,0.00,,,0.00,weatherlink.com 1.10,2013-06-27 18:29:00,
2013-06-27 12:45:00,80.1,28.0,29.76,NW,311,0.0,9.0,15,0.00,,,0.00,weatherlink.com 1.10,2013-06-27 18:45:00,
2013-06-27 13:00:00,81.6,28.0,29.75,West,272,2.0,10.0,14,0.00,,,0.00,weatherlink.com 1.10,2013-06-27 19:00:00,
2013-06-27 13:15:00,81.3,26.0,29.75,ENE,63,3.0,6.0,13,0.00,,,0.00,weatherlink.com 1.10,2013-06-27 19:15:00,
2013-06-27 13:30:00,81.8,26.0,29.75,NW,306,0.0,12.0,13,0.00,,,0.00,weatherlink.com 1.10,2013-06-27 19:30:00,
2013-06-27 13:45:00,82.1,27.0,29.75,NW,315,0.0,6.0,13,0.00,,,0.00,weatherlink.com 1.10,2013-06-27 19:45:00,
2013-06-27 14:00:00,82.1,27.0,29.74,NNE,27,1.0,9.0,13,0.00,,,0.00,weatherlink.com 1.10,2013-06-27 20:00:00,
2013-06-27 14:14:00,82.4,27.0,29.74,NNW,340,0.0,7.0,13,0.00,,,0.00,weatherlink.com 1.10,2013-06-27 20:14:00,
2013-06-27 14:30:00,84.6,27.0,29.73,NNW,346,0.0,6.0,12,0.00,,,0.00,weatherlink.com 1.10,2013-06-27 20:30:00,
2013-06-27 14:45:00,82.6,25.0,29.73,NW,321,1.0,6.0,12,0.00,,,0.00,weatherlink.com 1.10,2013-06-27 20:45:00,
2013-06-27 15:00:00,82.5,25.0,29.72,WNW,303,8.0,9.0,12,0.00,,,0.00,weatherlink.com 1.10,2013-06-27 21:00:00,
2013-06-27 15:15:00,82.2,25.0,29.72,West,270,0.0,10.0,12,0.00,,,0.00,weatherlink.com 1.10,2013-06-27 21:15:00,
2013-06-27 15:30:00,82.1,27.0,29.72,East,99,8.0,12.0,13,0.00,,,0.00,weatherlink.com 1.10,2013-06-27 21:30:00,
2013-06-27 15:45:00,82.6,25.0,29.71,North,355,0.0,4.0,12,0.00,,,0.00,weatherlink.com 1.10,2013-06-27 21:45:00,
2013-06-27 16:00:00,82.4,25.0,29.71,NNE,26,0.0,7.0,12,0.00,,,0.00,weatherlink.com 1.10,2013-06-27 22:00:00,
2013-06-27 16:15:00,81.4,24.0,29.71,ESE,116,0.0,5.0,12,0.00,,,0.00,weatherlink.com 1.10,2013-06-27 22:15:00,
2013-06-27 16:30:00,82.1,23.0,29.70,South,180,0.0,5.0,11,0.00,,,0.00,weatherlink.com 1.10,2013-06-27 22:30:00,
2013-06-27 16:45:00,82.8,23.0,29.70,NW,325,5.0,8.0,11,0.00,,,0.00,weatherlink.com 1.10,2013-06-27 22:45:00,
2013-06-27 17:00:00,80.9,24.0,29.70,NNE,19,2.0,4.0,12,0.00,,,0.00,weatherlink.com 1.10,2013-06-27 23:00:00,
2013-06-27 17:30:00,80.4,25.0,29.70,WSW,249,2.0,5.0,13,0.00,,,0.00,weatherlink.com 1.10,2013-06-27 23:30:00,
2013-06-27 17:45:00,80.9,24.0,29.70,East,89,2.0,23.0,12,0.00,,,0.00,weatherlink.com 1.10,2013-06-27 23:45:00,
2013-06-27 18:00:00,80.1,27.0,29.70,North,5,0.0,1.0,14,0.00,,,0.00,weatherlink.com 1.10,2013-06-28 00:00:00,
2013-06-27 18:15:00,80.4,25.0,29.69,NW,323,2.0,9.0,13,0.00,,,0.00,weatherlink.com 1.10,2013-06-28 00:15:00,
2013-06-27 18:30:00,81.2,26.0,29.70,NNW,339,1.0,7.0,13,0.00,,,0.00,weatherlink.com 1.10,2013-06-28 00:30:00,
2013-06-27 18:45:00,80.4,25.0,29.70,North,9,3.0,7.0,13,0.00,,,0.00,weatherlink.com 1.10,2013-06-28 00:45:00,
2013-06-27 19:16:00,76.6,30.0,29.70,NE,42,0.0,13.0,18,0.00,,,0.00,weatherlink.com 1.10,2013-06-28 01:16:00,
2013-06-27 19:31:00,76.0,31.0,29.70,ENE,67,4.0,15.0,19,0.00,,,0.00,weatherlink.com 1.10,2013-06-28 01:31:00,
2013-06-27 19:46:00,75.3,30.0,29.71,ESE,102,0.0,17.0,19,0.00,,,0.00,weatherlink.com 1.10,2013-06-28 01:46:00,
2013-06-27 20:01:00,74.6,30.0,29.71,ESE,104,10.0,16.0,19,0.00,,,0.00,weatherlink.com 1.10,2013-06-28 02:01:00,
2013-06-27 20:15:00,73.9,30.0,29.72,ENE,57,1.0,11.0,20,0.00,,,0.00,weatherlink.com 1.10,2013-06-28 02:15:00,
2013-06-27 20:30:00,73.1,32.0,29.73,East,83,7.0,14.0,22,0.00,,,0.00,weatherlink.com 1.10,2013-06-28 02:30:00,
2013-06-27 20:45:00,72.3,32.0,29.74,East,100,5.0,9.0,23,0.00,,,0.00,weatherlink.com 1.10,2013-06-28 02:45:00,
2013-06-27 21:32:00,71.2,33.0,29.76,ENE,66,0.0,5.0,24,0.00,,,0.00,weatherlink.com 1.10,2013-06-28 03:32:00,
2013-06-27 21:46:00,71.0,34.0,29.77,SSE,154,0.0,6.0,26,0.00,,,0.00,weatherlink.com 1.10,2013-06-28 03:46:00,
2013-06-27 22:01:00,70.4,34.0,29.78,ESE,115,0.0,7.0,26,0.00,,,0.00,weatherlink.com 1.10,2013-06-28 04:01:00,
2013-06-27 22:16:00,67.6,40.0,29.78,SE,145,1.0,16.0,36,0.00,,,0.00,weatherlink.com 1.10,2013-06-28 04:16:00,
2013-06-27 22:31:00,64.5,40.0,29.78,NE,50,3.0,16.0,41,0.00,,,0.00,weatherlink.com 1.10,2013-06-28 04:31:00,
2013-06-27 22:46:00,64.7,41.0,29.78,East,86,5.0,21.0,42,0.00,,,0.00,weatherlink.com 1.10,2013-06-28 04:46:00,
2013-06-27 23:01:00,62.9,40.0,29.78,ESE,105,2.0,21.0,44,0.00,,,0.00,weatherlink.com 1.10,2013-06-28 05:01:00,
2013-06-27 23:16:00,61.6,42.0,29.77,ENE,66,7.0,18.0,48,0.00,,,0.00,weatherlink.com 1.10,2013-06-28 05:16:00,
2013-06-27 23:31:00,60.2,42.0,29.77,ESE,110,5.0,10.0,51,0.00,,,0.00,weatherlink.com 1.10,2013-06-28 05:31:00,
2013-06-27 23:46:00,60.0,41.0,29.78,SE,137,0.0,9.0,50,0.00,,,0.00,weatherlink.com 1.10,2013-06-28 05:46:00,